Zurück zum Katalog

TITAN 3C TRANSTAGE DEB

LostMEO
NORAD 43512·DEBRIS·🇺🇸 United States

Gestartet Feb 9, 1969 von Cape Canaveral Space Force Station

Loading…

Nächste Überflüge (nächste 24 Stunden)

TLE

VeraltetSource: Space-Track

Epoche: Jan 10, 2026, 02:08 UTC

1 43512U 69013Q   26010.08904223 -.00000114  00000-0  00000-0 0  9998
2 43512   0.7931 139.3031 1083873  16.3162 209.9406  0.95012286  1752

Verfolge TITAN 3C TRANSTAGE DEB in Echtzeit mit AllMySat

Download on the App Store